CW0630 Weather Reports


Display with metric or nautical units.
time (UTC)temp
F
wind
direction
speed
MPH
gust
MPH
rain 1hr
in
rain 24hr
in
rain mn
in
humidity
%
barometer
mb
20260506050859 68 180 11.0 14.0 0.00 0.00 0.00 67 1012.6
20260506040851 70 165 9.0 9.0 0.00 0.00 0.00 62 1012.9
20260506030948 71 173 9.0 9.0 0.00 0.00 0.00 58 1012.6
20260506020959 72 186 2.0 4.0 0.00 0.00 0.00 54 1012.6
20260506011001 74 162 3.0 3.0 0.00 0.00 0.00 51 1012.2
20260506000946 76 176 9.0 9.0 0.00 0.00 0.00 47 1011.7
20260505230951 78 194 11.0 11.0 0.00 0.00 0.00 42 1011.5
20260505220957 80 196 5.0 5.0 0.00 0.00 0.00 36 1011.4
20260505210952 82 196 6.0 17.0 0.00 0.00 0.00 32 1011.4
20260505201007 84 196 10.0 12.0 0.00 0.00 0.00 32 1011.3
20260505191005 85 217 5.0 12.0 0.00 0.00 0.00 31 1012.0
20260505180952 84 190 14.0 14.0 0.00 0.00 0.00 34 1012.9
20260505170949 83 215 3.0 6.0 0.00 0.00 0.00 41 1013.4
20260505160954 80 210 4.0 4.0 0.00 0.00 0.00 45 1014.1
20260505150957 77 182 6.0 9.0 0.00 0.00 0.00 49 1014.4
20260505120957 62 205 5.0 5.0 0.00 0.00 0.00 69 1014.3
20260505111006 60 206 3.0 8.0 0.00 0.00 0.00 74 1013.6
20260505100954 59 165 7.0 7.0 0.00 0.00 0.00 73 1013.4
20260505091003 61 184 4.0 10.0 0.00 0.00 0.00 70 1013.2
20260505080953 62 171 9.0 9.0 0.00 0.00 0.00 67 1013.0
20260505071004 63 173 6.0 6.0 0.00 0.00 0.00 63 1012.9
20260505060950 63 188 7.0 10.0 0.00 0.00 0.00 59 1012.7